GFSGBSN_con_3kmhel_060.txt.gz
Helicity
72 86 97 105 89 66 56 56 60 63 75 75 75 70 72 72 72 58 55 52 50 45 46 40 46 64 20 39 19 114 91 110 69 42 18 1 -4 -14 -20 -21 -6 8 27 17 -14 1 -28
57 65 80 82 88 111 78 61 62 63 67 81 81 72 70 63 72 56 49 51 47 45 45 48 57 75 10 4 10 102 28 91 58 52 15 -5 -13 -6 -30 -52 -49 -41 -44 -26 65 61 43
72 68 70 73 81 81 100 115 75 66 68 67 75 81 72 62 65 56 49 39 38 39 31 38 54 57 21 86 10 93 40 38 42 50 24 -0 -20 -41 -62 -20 12 -6 -11 1 108 12 14
68 73 86 91 87 85 87 90 103 78 76 78 75 88 80 71 64 67 54 47 26 24 22 21 43 53 56 33 26 29 16 17 33 19 10 -35 -5 -30 -45 -41 -44 -17 40 62 206 132 1
78 93 77 75 88 96 99 99 90 95 85 80 88 86 86 82 76 82 69 55 23 14 23 25 33 29 48 58 41 23 28 23 39 42 15 5 -5 -14 -17 -1 -1 22 45 40 148 34 63
42 57 58 83 80 80 84 90 113 97 86 88 62 83 95 92 92 105 93 83 15 52 14 9 54 71 56 30 30 41 25 -0 22 37 34 31 15 -2 -2 -10 1 -6 13 7 67 56 43
34 42 43 53 51 59 59 74 83 104 109 89 110 61 83 95 106 129 128 91 28 7 33 70 103 93 172 34 70 47 48 24 10 41 71 45 32 18 -4 27 59 -9 -46 -26 132 65 72
41 38 37 44 51 51 46 64 59 84 107 114 102 96 54 89 108 138 148 113 127 140 78 29 24 36 10 83 118 37 65 86 35 46 45 36 56 -22 -15 -12 34 -5 -36 -24 57 64 55
49 50 49 43 51 69 64 63 57 62 73 88 106 112 92 60 101 105 98 25 126 69 35 5 32 55 30 29 21 50 69 57 48 40 56 34 16 68 -13 5 15 -5 -12 -48 -55 51 40
60 66 69 64 67 73 74 82 87 70 65 70 69 100 116 84 87 90 104 53 33 63 16 23 47 109 36 58 58 1 14 62 64 54 -4 9 -17 28 16 8 -9 -19 5 12 -10 -19 -18
60 65 67 70 68 67 68 70 86 84 75 78 77 70 89 85 284 217 216 304 71 75 110 54 28 134 87 204 190 83 4 74 76 50 23 12 -12 -32 32 5 -1 -18 18 11 -43 -38 -37
47 46 49 51 57 65 71 76 73 78 82 80 100 74 75 118 137 68 223 268 194 258 137 128 164 132 102 73 64 65 41 5 32 14 -4 -19 8 5 -2 23 -0 -27 22 19 -8 -27 -28
41 45 47 50 56 65 72 78 82 75 75 83 94 91 84 83 93 140 129 282 289 386 204 178 129 93 73 59 34 96 104 70 121 116 88 -7 -65 16 9 -4 69 14 6 -5 21 -40 57
38 40 48 50 56 64 79 86 96 80 59 75 94 115 88 89 30 212 81 322 423 244 163 104 24 54 38 41 53 45 99 96 72 62 68 97 47 -41 60 5 30 22 6 -6 24 32 -91
32 38 50 59 65 69 72 82 98 102 77 72 78 117 121 108 33 116 323 377 401 211 121 60 71 164 59 50 78 42 75 115 100 26 57 93 3 11 46 64 -37 -34 59 -19 -21 72 -0
18 16 18 33 46 79 81 93 110 119 93 57 120 128 139 87 47 109 242 329 218 128 131 -6 46 57 96 53 85 80 48 69 54 49 11 -3 52 -33 95 45 47 -16 -76 29 3 19 23
-2 -5 2 -4 24 84 102 122 130 129 87 48 131 197 146 74 107 148 264 212 188 131 108 81 98 99 68 17 61 57 68 55 47 67 20 -74 -54 -6 40 108 42 50 -8 2 -10 25 33
-42 -38 -24 51 93 102 117 124 139 129 87 92 233 238 120 209 277 282 206 199 83 109 152 24 100 48 65 -12 43 66 46 42 32 51 62 -102 25 10 80 60 57 -40 53 10 43 76 -2
15 46 113 107 110 91 63 61 114 115 109 197 372 365 103 215 366 295 162 -15 9 67 96 102 115 144 48 83 60 25 46 30 145 72 101 1 16 57 38 9 54 11 42 -11 -26 26 5
138 132 102 90 110 146 88 44 99 129 141 210 404 505 407 186 193 203 215 82 40 74 118 65 149 143 203 82 95 95 79 40 96 119 97 152 89 109 139 36 34 33 38 34 22 48 94
124 109 92 79 75 87 70 28 102 141 178 256 400 531 556 533 312 171 191 179 48 68 45 137 61 122 153 80 121 219 63 133 122 126 133 174 135 34 27 4 21 45 28 19 -46 117 126
91 77 81 88 89 86 84 91 81 170 193 300 469 554 416 345 204 222 184 152 70 98 99 105 91 128 138 47 74 134 91 127 165 109 159 167 142 52 46 42 25 50 7 52 20 -27 8
62 69 76 87 94 106 107 92 87 87 358 381 523 346 286 313 221 291 207 70 79 57 49 67 108 206 122 76 93 78 138 143 75 86 132 111 156 71 77 69 49 55 33 13 42 28 25
58 61 84 93 108 113 107 106 112 68 101 505 512 324 509 331 280 181 110 90 78 69 25 36 70 89 128 35 99 39 123 141 179 246 287 337 145 97 135 119 33 43 53 54 56 46 42
46 44 48 59 66 98 125 121 93 83 78 524 458 412 423 417 127 144 82 100 88 65 39 67 66 68 43 115 48 1 57 156 96 228 168 391 244 222 219 144 122 89 65 72 76 38 13
41 43 53 67 73 76 95 164 153 117 76 178 334 269 382 257 232 59 93 95 108 96 85 11 73 36 51 90 -9 3 7 71 111 119 97 146 406 123 225 249 136 101 108 28 52 63 31
36 48 65 72 37 61 62 101 153 136 129 146 294 193 333 302 173 119 130 73 57 55 84 55 74 84 130 185 93 19 12 130 110 26 72 83 124 300 249 233 141 117 66 29 54 -0 11
51 47 55 29 60 94 85 195 115 138 140 222 218 142 354 313 259 88 106 120 90 50 69 71 98 96 120 249 223 165 72 99 128 68 67 53 81 111 179 189 113 113 24 53 65 2 83
24 35 20 62 81 113 91 122 104 97 105 183 188 179 264 295 239 237 113 107 132 101 82 89 65 134 146 120 196 203 288 131 207 108 62 37 90 92 97 145 94 48 53 104 66 77 42

GFSGBSN_con_3kmhel_063.txt.gz
Helicity
48 46 44 50 58 56 72 75 55 56 52 57 58 66 72 65 59 57 59 64 57 55 55 55 55 51 17 51 55 71 87 70 59 79 49 40 23 41 24 16 -33 -88 1 -11 22 5 78
18 0 32 49 41 50 43 50 80 64 45 45 46 57 70 77 67 57 60 60 54 56 49 54 58 81 22 5 42 136 72 57 48 61 38 15 26 -2 19 -5 -90 -38 -76 -72 -36 36 41
114 83 68 33 59 78 48 42 44 70 74 55 46 42 54 73 78 79 71 63 59 53 45 35 52 50 47 125 33 50 57 40 68 32 25 -6 7 44 14 -51 -84 -127 -74 -60 -8 42 131
82 78 105 97 99 57 49 81 60 62 70 73 67 50 43 44 60 78 82 71 66 48 35 24 35 49 46 46 56 74 53 -7 11 40 -3 7 -28 21 40 -34 -102 -82 -41 -2 17 161 96
61 62 70 61 74 78 82 83 80 87 80 68 63 70 53 40 36 51 77 64 65 69 38 14 43 38 48 43 62 34 10 20 12 30 -6 -12 22 35 36 27 -51 -39 48 106 141 111 88
46 55 56 57 57 60 58 74 78 77 86 81 73 62 55 62 54 36 62 76 94 54 35 16 62 81 53 79 57 68 36 15 46 60 33 22 46 40 53 84 35 18 72 80 102 52 132
50 52 47 50 50 48 44 43 57 58 73 82 73 79 79 58 63 53 42 54 85 86 67 89 52 108 56 110 159 72 57 31 8 64 124 60 81 57 49 37 14 66 38 -9 -2 77 126
45 40 33 29 32 38 40 44 48 48 51 60 68 71 89 88 66 82 74 76 63 120 20 52 59 81 33 46 119 106 69 98 94 78 135 83 120 41 -1 -21 -10 59 19 11 -21 120 66
42 41 39 35 30 33 35 49 60 66 55 54 63 54 60 83 91 101 130 80 117 184 58 -41 65 158 137 70 107 2 95 119 116 95 96 146 72 71 -7 -20 8 11 -26 11 -4 36 17
38 43 42 39 40 47 48 50 56 70 84 76 66 66 52 88 86 166 137 123 179 184 36 -9 104 104 117 163 178 7 20 122 136 88 31 106 50 -35 -2 48 13 -28 1 -7 -36 41 15
41 47 49 55 62 61 64 59 53 46 59 80 75 87 69 55 102 97 272 252 253 81 101 32 73 28 41 283 228 87 -14 123 141 89 177 145 44 38 -11 -13 59 12 -31 48 20 0 18
46 45 48 63 64 63 62 60 49 49 48 47 77 84 91 101 46 -54 64 257 186 257 148 152 141 120 136 69 110 252 121 92 180 76 40 18 10 -46 -16 -14 50 9 -8 24 43 27 -40
43 45 53 49 44 47 55 61 61 55 49 46 55 82 121 118 39 115 29 273 373 387 256 192 234 150 95 111 52 22 161 185 229 179 136 17 -75 -60 -6 16 40 78 58 22 59 25 0
42 46 43 33 36 46 49 57 60 69 68 54 48 74 98 102 21 126 40 331 443 251 300 127 177 114 131 105 87 62 89 141 136 158 178 124 36 -58 -8 29 51 80 79 97 59 33 -6
43 45 40 33 31 32 44 54 66 74 77 60 33 85 138 86 33 113 149 279 345 307 251 155 28 257 156 42 80 89 66 108 116 132 195 188 69 43 -39 45 74 10 59 24 37 74 3
26 30 38 45 43 43 51 61 72 76 69 46 119 117 129 55 94 108 223 142 149 191 312 225 79 65 200 47 41 106 114 94 94 67 109 131 126 -7 15 37 50 -15 46 37 51 78 22
12 15 21 30 37 41 48 68 73 86 72 54 161 161 128 62 144 178 226 211 91 133 192 167 121 159 92 122 121 101 79 74 110 131 110 22 81 76 19 46 23 87 -15 31 44 69 76
16 18 21 21 22 26 51 72 79 91 80 77 217 223 88 162 203 223 178 282 93 159 105 104 54 176 288 91 87 86 104 41 72 83 108 100 90 71 30 73 66 107 134 51 126 35 64
16 5 5 18 2 -12 3 58 81 73 95 194 303 369 130 271 297 191 152 62 8 131 59 172 19 -10 80 185 101 37 37 32 61 52 120 167 97 142 98 60 39 123 102 104 57 104 38
4 6 18 29 20 19 57 65 68 61 97 227 351 445 417 222 209 200 183 115 46 79 29 73 25 92 59 162 136 65 33 3 82 139 83 206 194 119 98 175 131 126 66 38 84 65 53
5 8 23 31 98 132 115 50 63 69 87 277 390 480 565 292 260 148 162 150 28 55 98 107 74 -21 96 155 142 110 -8 -50 80 121 53 123 140 134 159 4 70 17 58 28 61 80 127
22 51 125 156 137 106 93 107 66 64 75 268 414 467 472 352 259 225 158 90 85 63 126 117 57 2 106 140 163 0 -4 -25 11 110 87 132 193 151 122 140 65 85 -1 23 49 31 115
71 100 103 111 118 105 74 47 26 77 93 256 348 308 359 282 319 280 198 76 82 92 90 51 65 16 -22 138 192 50 -77 -58 46 7 162 219 163 217 141 122 101 73 10 4 6 23 111
81 70 71 76 76 71 70 59 48 60 85 91 329 407 447 341 326 242 197 128 106 125 78 87 60 77 -119 46 38 51 62 1 9 6 33 182 202 245 251 249 149 154 -29 93 53 3 36
58 59 52 55 45 55 66 68 58 43 38 72 291 415 438 409 245 175 198 154 116 146 72 116 69 22 -12 58 130 64 -22 -10 -77 -41 54 273 194 236 271 260 207 117 154 103 61 14 42
52 54 63 33 34 53 75 110 94 72 68 152 148 221 445 424 357 172 214 181 183 120 130 92 -8 53 56 124 129 78 -6 -54 35 10 0 21 309 311 338 241 125 68 131 124 85 83 112
47 54 59 46 49 62 70 80 114 113 82 174 201 77 276 488 442 241 193 148 130 122 126 86 65 59 54 63 134 112 59 -9 1 -81 -3 27 249 336 348 254 204 151 60 47 150 94 34
29 52 60 60 59 64 73 76 81 132 104 168 235 147 215 269 240 356 279 192 189 94 82 85 61 87 155 109 114 114 59 10 -28 46 -14 26 33 35 42 112 130 118 183 190 173 83 14
46 39 37 47 40 69 82 89 98 89 154 209 292 263 188 106 363 304 269 194 172 48 90 55 90 101 188 157 175 146 196 100 35 20 73 113 87 -11 -37 -23 4 123 145 97 326 263 34

GFSGBSN_con_3kmhel_069.txt.gz
Helicity
89 66 40 51 75 88 123 128 91 66 65 92 90 67 50 48 52 52 38 57 60 55 61 77 85 83 33 49 32 71 100 130 84 80 62 87 112 117 51 47 58 96 44 18 3 -9 42
94 93 98 75 49 33 18 51 109 96 45 42 56 58 32 5 17 33 49 42 44 56 50 67 71 69 7 21 37 76 56 85 111 106 76 100 75 68 77 52 70 42 25 20 -23 18 93
79 83 79 71 62 31 56 32 13 -0 14 -0 53 65 33 30 8 11 16 32 47 54 65 80 63 21 24 39 51 51 88 85 113 103 87 73 87 119 134 91 37 34 -45 -124 -23 29 68
69 71 79 79 77 66 59 74 77 56 28 55 23 1 3 -20 -3 28 37 35 46 75 77 89 46 6 20 38 32 1 37 42 59 53 55 47 114 113 144 101 70 32 -18 48 -16 34 49
72 69 69 83 86 73 67 75 86 72 69 93 122 103 74 65 -3 11 28 41 82 124 46 44 34 25 19 44 48 113 120 84 74 63 87 99 143 96 155 148 71 89 26 25 -58 -5 -39
70 71 74 81 95 91 77 67 59 55 58 68 76 87 101 96 74 -2 35 70 117 24 33 39 81 71 66 68 38 71 81 82 138 124 146 151 163 145 188 220 130 109 65 94 79 17 30
62 65 76 79 82 87 73 59 42 43 34 44 48 61 47 52 81 123 33 -61 41 48 88 92 57 96 79 98 85 88 110 76 109 199 180 204 194 197 205 196 165 97 95 56 15 62 56
62 63 68 69 72 71 70 66 60 51 50 39 39 54 39 19 30 62 50 65 92 29 4 68 51 54 -5 43 58 54 115 112 157 150 220 220 106 138 161 126 99 83 105 27 -28 51 84
63 61 64 66 69 69 65 63 66 56 55 55 53 55 60 58 37 42 41 81 127 135 -29 -163 94 154 146 76 119 -9 114 125 141 190 183 238 132 97 182 137 100 89 120 74 67 61 104
66 66 68 71 64 63 58 52 48 52 56 54 53 51 51 62 67 55 61 87 149 73 12 -0 69 26 130 170 102 69 77 138 173 145 174 164 27 157 115 90 151 40 93 64 56 104 114
76 79 76 74 64 63 60 45 38 42 48 43 39 42 53 47 89 85 93 67 116 67 45 16 72 60 71 130 139 36 169 238 182 165 206 222 100 105 113 49 174 47 76 95 74 89 124
83 86 83 84 75 68 52 38 34 32 37 33 42 43 48 64 70 61 48 74 111 139 89 91 68 72 94 49 81 149 173 282 211 140 153 113 82 96 113 56 142 39 93 112 115 158 43
79 81 84 81 71 66 53 43 28 35 37 32 37 42 58 101 66 77 70 148 171 184 207 165 139 80 94 79 34 78 129 247 356 220 130 149 57 102 84 96 123 165 151 143 143 214 67
72 69 68 58 61 56 54 53 52 39 37 34 33 42 50 83 73 77 102 253 171 159 206 181 154 220 185 80 89 90 109 164 247 257 135 181 101 71 110 122 138 180 192 197 112 112 31
50 45 48 48 47 48 47 48 54 45 41 33 29 98 75 78 107 120 184 272 269 183 270 314 304 300 204 154 167 148 137 103 163 254 191 85 114 87 118 160 131 97 187 121 160 138 50
47 41 41 45 49 48 46 40 59 46 27 21 98 150 92 75 146 171 228 273 240 289 294 209 325 300 373 382 262 230 251 132 125 102 195 148 90 69 73 93 131 120 126 170 236 160 68
55 49 45 40 40 40 43 29 35 31 11 17 111 174 153 179 192 235 257 335 172 226 279 251 237 250 244 285 297 278 247 187 189 237 93 135 125 99 48 112 129 194 113 152 150 209 135
49 49 46 40 36 37 30 17 20 16 15 36 114 224 166 296 260 301 163 301 284 228 206 168 107 5 100 102 218 207 170 210 136 115 274 103 89 129 41 47 43 110 133 175 186 213 209
37 41 45 42 41 42 23 24 29 6 28 109 155 262 119 329 289 241 228 132 228 237 187 206 142 45 12 -86 51 90 129 167 89 198 249 263 249 123 107 83 49 102 120 143 186 190 150
38 38 40 43 36 36 18 23 44 33 27 109 192 258 343 289 350 201 205 139 133 161 148 206 140 114 67 52 52 -7 107 168 180 -3 129 162 163 209 174 80 79 99 106 129 150 156 165
-0 56 40 27 11 13 -7 9 15 9 34 106 141 223 368 372 329 257 201 126 124 150 65 93 26 27 74 31 39 89 51 37 -17 23 -1 102 144 118 113 136 47 95 102 117 138 176 156
-28 -44 -61 -60 -26 -11 1 7 -9 -1 51 153 173 245 316 329 276 248 259 166 109 67 146 90 75 94 52 88 98 67 93 104 77 80 2 30 58 47 36 85 59 74 126 78 107 129 115
-28 -29 -19 -17 -3 1 5 8 7 30 82 165 165 186 265 243 308 182 91 127 41 101 21 14 44 65 59 50 52 65 91 163 144 161 37 13 -2 55 19 186 189 127 37 84 87 101 121
19 9 7 7 10 7 8 7 22 48 86 174 229 271 331 169 85 104 117 1 14 54 35 59 -17 9 12 35 90 114 83 33 198 126 116 71 68 -4 -54 60 39 105 63 63 100 125 102
24 37 14 4 11 12 21 35 54 51 67 171 279 320 297 83 202 70 92 74 19 21 46 33 37 32 42 26 60 40 57 91 112 182 151 121 51 -33 -96 -188 -47 182 88 29 97 44 129
17 28 30 30 35 38 35 73 67 83 53 189 234 291 349 245 53 211 200 225 216 114 30 36 63 31 39 60 78 63 50 75 65 77 155 152 127 55 -28 -80 -207 -111 34 113 -48 58 81
4 25 36 41 42 53 63 74 82 75 56 167 226 217 298 245 216 239 302 282 281 223 168 146 65 34 44 66 85 64 85 88 113 117 129 161 158 102 46 -26 -44 -79 -7 11 124 102 135
8 3 17 33 35 48 56 57 61 52 57 166 258 202 246 321 281 329 243 288 292 264 225 114 134 110 157 153 122 94 59 52 101 135 131 121 89 112 111 34 -90 -58 126 69 105 192 172
23 13 19 44 30 55 64 57 48 40 28 90 205 165 162 255 279 217 158 234 134 200 262 182 86 72 120 152 192 121 112 122 67 114 168 162 155 151 72 -12 43 21 -6 -191 61 126 222

GFSGBSN_con_3kmhel_072.txt.gz
Helicity
118 116 114 122 106 89 70 77 100 96 83 94 94 80 89 84 96 97 91 73 61 63 64 70 88 83 18 59 33 56 92 114 99 83 65 76 96 120 97 109 155 153 64 60 11 -19 12
80 77 81 88 95 96 70 71 74 60 50 44 35 74 81 49 57 83 85 72 48 45 50 65 53 77 0 43 40 66 144 109 102 105 82 126 78 80 98 111 131 128 124 37 8 7 34
55 65 64 68 72 80 87 76 57 51 70 62 14 -24 -31 66 48 55 54 61 43 24 50 58 32 32 25 60 52 6 60 76 98 110 116 111 112 131 136 102 107 121 60 12 11 12 2
64 68 74 79 84 83 71 68 80 69 73 75 78 68 8 -84 3 35 63 60 98 47 78 34 17 11 -1 46 42 12 70 66 52 67 118 122 119 132 132 120 131 106 109 69 60 52 21
60 64 70 79 81 78 81 65 64 63 78 100 99 82 98 73 39 7 16 56 75 108 56 12 42 45 40 51 49 70 106 54 98 102 100 122 137 131 176 170 130 133 94 79 44 8 68
59 60 61 73 74 81 82 70 65 67 64 72 75 73 73 69 77 91 106 126 53 -17 14 -4 90 112 105 87 43 70 112 115 131 171 182 168 192 167 233 264 165 149 119 100 113 45 27
59 61 67 62 65 65 73 73 73 76 80 57 61 58 63 74 40 63 73 17 93 58 77 112 105 108 102 133 74 69 88 93 146 200 233 235 286 147 267 234 195 121 106 99 74 51 68
57 55 61 64 65 66 68 68 71 84 79 73 62 58 55 34 39 52 42 29 22 6 -11 44 38 53 21 93 94 58 70 79 128 142 226 309 221 153 124 137 153 134 101 77 29 46 89
56 54 58 57 58 68 72 62 68 72 77 77 67 56 47 33 46 66 73 47 46 60 -36 -67 63 120 135 92 132 40 97 95 105 159 180 226 176 133 175 152 129 138 125 128 87 116 78
56 65 59 61 64 76 74 72 63 63 64 73 63 57 53 41 76 59 83 80 48 4 -49 4 35 19 96 161 112 108 78 149 97 93 152 137 86 128 160 134 196 112 144 98 97 152 112
56 55 67 65 71 78 84 75 67 52 51 61 58 46 46 61 73 97 98 49 57 11 -7 11 5 29 45 39 158 34 133 224 156 148 176 180 127 124 173 87 141 75 106 92 126 168 133
60 59 59 65 74 84 84 81 71 58 56 65 56 44 40 76 95 70 69 59 65 53 35 95 22 30 38 40 72 153 139 277 198 209 152 106 89 74 107 83 119 82 82 106 173 172 125
65 64 60 68 72 78 80 73 65 51 62 66 54 42 52 98 80 63 70 151 127 113 132 121 143 61 52 48 53 61 75 231 346 237 138 152 98 113 112 124 120 162 179 195 190 180 172
63 68 71 65 60 72 72 67 65 57 71 58 43 34 61 110 97 84 129 224 127 104 183 116 107 176 103 63 79 83 86 109 203 280 142 179 100 120 154 120 143 135 201 247 163 163 119
69 65 61 63 59 66 58 55 48 39 25 46 19 45 96 100 105 97 180 246 201 175 222 216 258 232 189 198 157 106 65 45 112 160 164 60 93 94 88 200 135 180 204 157 142 71 62
54 55 62 68 62 63 54 42 31 27 4 16 72 74 102 125 152 151 226 247 269 238 240 229 259 242 266 234 223 211 121 144 118 87 154 136 113 66 81 137 175 159 106 175 255 148 94
58 61 68 73 72 61 49 33 33 31 5 14 74 100 120 182 174 210 232 293 198 215 231 181 170 204 206 225 237 269 272 219 206 202 88 103 150 136 93 125 125 177 149 181 150 177 113
51 40 54 49 48 53 49 36 32 36 16 24 85 131 145 288 226 263 190 223 248 177 118 142 97 68 105 124 183 277 314 299 266 188 193 217 148 116 39 84 82 153 143 148 153 160 137
53 41 37 27 32 45 50 42 34 36 21 61 70 140 110 217 217 223 216 106 174 185 135 151 133 105 93 95 94 113 223 125 217 307 213 276 244 138 153 150 103 62 37 128 140 165 41
50 42 32 21 22 30 38 35 37 45 14 62 57 149 238 243 273 188 204 163 146 101 140 153 145 83 19 14 13 28 124 97 90 122 162 49 229 172 138 203 202 196 218 113 134 131 106
23 13 21 32 36 30 35 36 36 44 39 78 82 107 266 254 229 247 208 135 138 141 81 108 77 65 80 71 64 41 25 48 64 -23 32 47 123 198 169 148 156 152 195 198 187 172 99
25 25 11 5 2 1 43 39 37 37 30 91 122 177 230 244 205 210 214 174 142 93 132 82 59 69 70 105 83 106 86 120 53 249 164 67 46 75 123 156 175 149 96 61 112 103 146
16 2 -13 -23 -23 -14 -25 -43 14 44 38 97 158 160 174 126 155 213 226 218 136 143 62 94 52 51 44 43 71 94 97 137 122 171 258 232 64 -9 52 58 85 134 33 55 82 89 78
1 3 13 28 -13 -44 -61 -53 2 30 40 120 184 167 188 121 211 202 149 188 154 71 99 30 -8 8 48 58 63 73 82 101 91 67 101 209 169 138 5 14 62 45 29 29 21 140 109
-11 -15 -12 -1 -2 -16 -19 -38 -18 18 27 94 151 158 138 37 19 60 107 23 89 138 37 31 35 38 29 75 78 94 89 79 68 79 97 124 220 159 15 69 5 -38 14 8 40 89 124
25 -20 -1 -1 -17 5 3 -2 1 7 23 104 159 247 227 104 37 208 129 216 208 59 29 13 9 1 30 78 80 69 47 36 54 60 96 135 220 193 106 -7 -85 -76 48 70 14 84 12
106 29 -13 7 6 3 3 3 11 12 53 137 187 178 291 222 221 226 267 301 328 243 173 101 44 42 77 81 79 60 53 67 76 45 61 106 125 84 128 101 50 13 -25 -3 -13 -14 102
9 83 27 1 13 20 40 47 43 61 64 116 174 160 307 363 301 264 304 359 356 289 239 161 147 90 121 94 91 73 49 49 56 64 70 86 81 98 96 78 44 -9 -2 1 26 21 87
13 1 76 15 3 22 16 62 61 36 47 116 245 317 332 301 269 283 259 233 200 233 230 212 126 85 109 128 111 66 95 99 63 59 95 92 124 84 100 88 95 68 65 52 64 -8 -17

GFSGBSN_con_3kmhel_075.txt.gz
Helicity
82 89 86 82 86 95 96 105 105 93 76 59 61 61 75 76 64 52 60 77 64 64 82 90 81 92 29 98 54 70 47 63 63 43 64 91 128 129 101 95 130 132 81 89 50 41 24
76 67 69 74 73 73 80 87 82 81 92 85 73 55 48 30 34 63 66 56 71 57 59 68 60 51 37 61 56 76 131 105 100 83 78 87 70 81 102 108 101 83 70 64 38 -5 24
64 70 66 67 80 81 79 66 59 50 52 63 61 64 54 55 34 -10 2 81 71 80 65 49 38 26 35 58 67 70 67 89 83 104 104 96 94 115 139 111 99 91 71 29 7 52 98
48 64 74 71 68 70 63 61 56 47 49 56 61 65 80 76 65 57 33 -13 71 140 53 9 1 33 17 14 35 52 50 58 50 67 95 125 137 157 170 163 155 94 92 64 88 129 137
61 59 60 56 66 73 62 60 60 64 57 63 61 64 66 68 56 52 46 91 145 22 8 -2 55 58 -59 48 39 66 77 65 111 118 100 179 147 171 171 165 126 112 68 84 68 119 134
75 54 52 58 62 67 68 67 63 61 61 58 53 53 57 65 62 62 44 68 31 46 91 89 136 35 81 85 76 101 67 99 129 188 192 177 221 204 188 222 154 123 116 106 85 132 206
62 51 47 65 68 56 60 58 63 63 57 66 64 57 51 47 62 59 50 24 75 37 96 99 115 162 145 113 70 82 130 81 130 204 250 231 270 204 168 209 164 98 79 92 85 88 135
58 64 52 48 52 57 55 52 57 61 58 69 66 63 54 40 47 53 68 26 15 24 -29 10 18 39 5 163 191 116 78 173 153 139 201 278 221 91 111 141 107 105 95 79 40 59 82
64 62 58 49 49 51 49 64 65 65 66 62 63 68 53 43 55 60 69 87 76 54 -53 -5 71 106 109 141 122 97 123 155 116 113 124 173 149 132 118 150 114 79 67 65 57 87 71
51 39 41 47 51 51 54 64 72 75 75 72 58 74 53 50 74 51 80 58 66 43 -5 -35 -10 18 72 147 90 26 78 117 125 96 110 90 113 51 113 122 120 91 65 67 63 86 64
48 46 38 46 37 33 57 68 66 71 77 75 66 70 59 54 61 95 104 64 41 39 14 35 5 12 15 27 152 109 112 143 103 152 139 114 88 81 149 76 102 78 72 31 59 90 106
56 60 47 49 45 48 51 64 68 63 74 78 70 80 71 78 76 72 59 60 75 86 38 112 49 15 25 18 38 136 93 254 127 176 201 82 110 84 92 129 68 77 136 103 122 135 112
58 52 50 46 50 54 59 67 64 62 62 72 81 85 87 91 70 56 52 148 129 110 135 141 133 53 33 42 27 42 88 123 261 261 141 126 101 113 83 73 139 136 100 99 117 165 138
51 49 50 34 52 61 64 71 75 68 57 63 69 89 84 93 92 79 102 199 127 130 122 111 92 121 34 74 75 64 61 59 116 243 146 160 120 101 126 149 141 106 126 205 96 87 99
63 58 57 55 58 56 66 73 69 60 43 38 67 85 109 80 103 103 161 213 156 128 158 165 181 144 123 121 107 48 64 73 96 89 168 95 86 94 93 178 183 151 174 93 146 148 102
48 49 49 59 58 57 67 71 60 44 26 25 76 102 114 78 118 177 206 179 216 239 186 138 170 138 151 209 176 144 87 167 155 85 93 156 137 91 80 107 116 119 111 159 177 124 91
47 54 60 58 62 62 71 72 55 38 22 33 93 133 93 124 157 230 260 193 154 132 164 138 106 135 145 140 200 224 194 188 197 158 52 110 179 203 122 123 102 151 169 184 163 189 145
43 42 44 45 40 59 58 44 42 40 34 55 102 170 134 210 202 276 263 220 185 108 108 102 53 4 63 137 156 225 249 193 276 218 182 164 110 114 167 99 76 159 132 121 151 149 167
28 30 32 41 51 50 42 38 41 46 39 112 121 128 53 190 204 214 215 197 156 97 102 108 89 55 36 15 122 132 198 180 233 318 269 228 186 151 154 130 143 178 181 163 188 183 105
25 34 48 46 52 43 23 14 23 43 39 79 112 167 90 215 248 109 214 144 140 49 48 122 69 47 65 49 40 55 123 97 45 97 153 153 178 212 160 185 209 222 254 193 163 154 131
21 32 35 39 37 20 7 10 27 44 44 76 125 144 86 182 251 169 116 113 111 69 42 21 76 74 74 75 65 45 -21 18 21 67 98 107 155 145 174 225 154 137 173 209 215 152 115
14 29 63 55 44 29 7 -1 29 50 45 116 149 141 53 59 132 133 166 166 104 49 65 59 66 44 62 75 86 85 90 64 63 187 216 220 171 85 120 60 102 89 102 148 88 80 81
-23 -5 47 59 60 52 42 32 31 41 69 139 115 83 120 -22 47 137 246 162 106 115 62 53 25 23 38 47 47 90 113 106 103 153 198 212 214 113 88 26 19 67 84 11 67 61 31
33 63 49 50 55 57 48 39 44 51 57 159 190 176 120 13 68 73 65 127 115 109 71 12 28 58 64 109 69 70 81 86 70 71 94 186 216 195 107 124 98 64 80 85 81 81 108
24 38 48 50 5 45 55 57 16 36 54 152 162 179 145 25 43 -5 29 52 29 56 55 32 46 73 50 52 108 105 96 91 82 59 62 70 127 172 120 84 147 144 103 88 66 58 67
35 46 74 88 39 7 21 60 37 19 32 75 155 192 131 60 -83 -61 -63 -56 46 131 82 2 108 83 78 130 109 92 96 106 110 136 65 89 110 151 134 151 111 93 136 119 58 22 74
-7 28 10 41 102 31 35 10 40 -3 -13 32 169 200 127 -51 -44 -16 49 73 147 151 101 132 117 81 64 71 78 69 83 99 109 99 94 130 132 96 69 49 26 40 72 57 23 55 83
31 23 30 38 63 71 20 51 4 -2 -26 -6 81 125 85 61 30 -26 133 204 287 269 171 133 130 80 93 94 112 96 62 64 64 55 64 57 66 82 20 12 50 13 27 67 43 41 54
26 20 23 21 20 106 27 48 10 17 -10 -30 102 145 183 132 109 197 146 216 204 283 209 228 125 78 99 121 107 75 59 61 46 72 73 57 49 55 46 35 45 50 4 4 -11 -7 37